Weather History for Omaha Offutt, NE

Change the Weather History Date:

Wednesday, August 20, 2014

  Actual Average Record
Temperature  
Mean Temperature 80 °F -  
Max Temperature 90 °F 82 °F 98 °F (2003)
Min Temperature 69 °F 63 °F 49 °F (2012)
Cooling Degree Days 14    
Growing Degree Days 30 (Base 50)    
Moisture  
Dew Point 75 °F    
Average Humidity 89    
Maximum Humidity 100    
Minimum Humidity 70    
Precipitation  
Precipitation 0.00 in - - ()
Sea Level Pressure  
Sea Level Pressure 29.78 in    
Wind  
Wind Speed 9 mph (ESE)    
Max Wind Speed 20 mph    
Max Gust Speed 25 mph    
Visibility 10 miles    
Events      
Averages and records for this station are not official NWS values.
T = Trace of Precipitation, MM = Missing Value Source: NWS Daily Summary

Daily Weather History Graph

Daily Weather History Graph

Search for Another Location

Airport:

Trip Planner

Search our weather history database for the weather conditions in past years. The results will help you decide how hot, cold, wet, or windy it might be!

Date:

Astronomy

Aug. 20, 2014 Rise Set
Actual Time 6:38 AM CDT 8:15 PM CDT
Civil Twilight 6:09 AM CDT 8:44 PM CDT
Nautical Twilight 5:33 AM CDT 9:19 PM CDT
Astronomical Twilight 4:56 AM CDT 9:56 PM CDT
Moon 2:18 AM CDT (8/20) 5:01 PM CDT (8/20)
Length of Visible Light 14h 35m
Length of Day
13h 36m
Waning Crescent, 20% of the Moon is Illuminated
Aug 20
Waning Crescent
Aug 25
New
Sep 2
First Quarter
Sep 8
Full
Sep 15
Last Quarter

Hourly Weather History & Observations

Time (CDT) Temp. Heat Index Dew Point Humidity Pressure Visibility Wind Dir Wind Speed Gust Speed Precip Events Conditions
12:58 AM 69.6 °F - 69.6 °F 100% 29.80 in 10.0 mi East 3.5 mph - N/A   Clear
1:58 AM 71.4 °F - 71.2 °F 99% 29.78 in 10.0 mi East 5.8 mph - N/A   Clear
2:58 AM 72.0 °F - 71.8 °F 99% 29.75 in 10.0 mi ESE 6.9 mph - N/A   Clear
3:58 AM 73.0 °F - 72.7 °F 99% 29.73 in 10.0 mi SE 5.8 mph - N/A   Partly Cloudy
4:58 AM 72.0 °F - 72.0 °F 100% 29.73 in 10.0 mi East 4.6 mph - N/A   Scattered Clouds
5:58 AM 71.8 °F - 71.8 °F 100% 29.75 in 10.0 mi East 4.6 mph - N/A   Partly Cloudy
6:58 AM 73.8 °F - 73.4 °F 99% 29.78 in 10.0 mi East 3.5 mph - N/A   Partly Cloudy
7:58 AM 73.6 °F - 73.6 °F 100% 29.81 in 10.0 mi North 10.4 mph - N/A   Mostly Cloudy
8:58 AM 74.7 °F - 74.3 °F 99% 29.82 in 10.0 mi NE 9.2 mph - N/A   Clear
9:58 AM 74.7 °F - 74.5 °F 99% 29.84 in 10.0 mi East 9.2 mph - N/A   Scattered Clouds
10:58 AM 77.0 °F - 74.3 °F 91% 29.84 in 10.0 mi East 10.4 mph - N/A   Clear
11:58 AM 81.0 °F 86.5 °F 74.5 °F 81% 29.84 in 10.0 mi ESE 13.8 mph - N/A   Partly Cloudy
12:58 PM 83.3 °F 90.8 °F 74.8 °F 76% 29.83 in 10.0 mi ESE 16.1 mph - N/A   Partly Cloudy
1:58 PM 85.8 °F 96.8 °F 77.0 °F 75% 29.81 in 10.0 mi ESE 17.3 mph 24.2 mph N/A   Clear
2:58 PM 88.5 °F 101.6 °F 77.5 °F 70% 29.78 in 10.0 mi SE 18.4 mph 25.3 mph N/A   Partly Cloudy
3:58 PM 88.9 °F 103.9 °F 79.0 °F 72% 29.77 in 10.0 mi ESE 19.6 mph - N/A   Clear
4:58 PM 90.0 °F 107.9 °F 80.1 °F 73% 29.78 in 10.0 mi ESE 16.1 mph 25.3 mph N/A   Clear
5:58 PM 88.2 °F 101.2 °F 77.9 °F 71% 29.76 in 10.0 mi ESE 16.1 mph 23.0 mph N/A   Clear
6:58 PM 86.7 °F 99.3 °F 78.1 °F 75% 29.75 in 10.0 mi ESE 13.8 mph - N/A   Clear
7:58 PM 83.8 °F 93.9 °F 77.4 °F 81% 29.76 in 10.0 mi ESE 12.7 mph - N/A   Clear
8:58 PM 81.1 °F 88.0 °F 76.6 °F 86% 29.77 in 10.0 mi ESE 10.4 mph - N/A   Clear
9:58 PM 79.9 °F - 77.0 °F 91% 29.77 in 10.0 mi ESE 9.2 mph - N/A   Clear
10:58 PM 79.2 °F - 77.2 °F 94% 29.78 in 10.0 mi SE 9.2 mph - N/A   Clear
11:58 PM 77.5 °F - 77.4 °F 99% 29.78 in 10.0 mi ESE 8.1 mph - N/A   Clear